N7TUG-8 Weather Reports


time (UTC)temp
F
wind
direction
speed
knots
gust
knots
rain 1hr
in
rain 24hr
in
rain mn
in
humidity
%
barometer
mb
20260504001326 76 309 5.2 8.7 0.00 0.00 0.00 53 1009.3
20260504001048 76 309 5.2 8.7 0.00 0.00 0.00 53 1009.3
20260503235821 76 305 3.5 7.8 0.00 0.00 0.00 53 1009.5
20260503235722 76 305 3.5 7.8 0.00 0.00 0.00 53 1009.5
20260503234431 76 332 2.6 10.4 0.00 0.00 0.00 54 1009.6
20260503232911 76 324 4.3 7.8 0.00 0.00 0.00 54 1009.8
20260503231542 76 334 2.6 7.0 0.00 0.00 0.00 54 1009.9
20260503231331 76 316 4.3 7.0 0.00 0.00 0.00 53 1010.1
20260503230332 76 328 3.5 7.8 0.00 0.00 0.00 54 1010.2
20260503225906 76 323 4.3 7.8 0.00 0.00 0.00 54 1010.2
20260503224401 74 333 5.2 10.4 0.00 0.00 0.00 54 1010.6
20260503223627 74 316 5.2 10.4 0.00 0.00 0.00 54 1010.7
20260503223026 74 328 6.1 10.4 0.00 0.00 0.00 55 1010.8
20260503221731 74 331 7.0 11.3 0.00 0.00 0.00 55 1010.9
20260503220146 74 340 7.0 11.3 0.00 0.00 0.00 54 1011.1
20260503214602 73 315 7.0 11.3 0.00 0.00 0.00 59 1011.2
20260503214312 73 325 7.0 11.3 0.00 0.00 0.00 59 1011.2
20260503213052 72 316 7.0 10.4 0.00 0.00 0.00 60 1011.3
20260503212922 71 327 7.0 10.4 0.00 0.00 0.00 61 1011.3
20260503211746 72 315 7.8 10.4 0.00 0.00 0.00 59 1011.4
20260503211627 72 315 7.8 10.4 0.00 0.00 0.00 59 1011.4
20260503210411 73 336 5.2 10.4 0.00 0.00 0.00 56 1011.4
20260503205126 72 334 7.0 11.3 0.00 0.00 0.00 57 1011.6
20260503203546 72 332 7.0 11.3 0.00 0.00 0.00 57 1011.8
20260503203512 72 329 7.0 11.3 0.00 0.00 0.00 58 1011.8
20260503202207 71 332 7.0 11.3 0.00 0.00 0.00 58 1012.0
20260503201951 71 338 7.0 11.3 0.00 0.00 0.00 58 1012.0
20260503201002 72 320 6.1 10.4 0.00 0.00 0.00 57 1012.1
20260503200421 72 336 6.1 13.0 0.00 0.00 0.00 59 1012.3
20260503194906 72 331 5.2 8.7 0.00 0.00 0.00 59 1012.4
20260503194237 72 314 6.1 8.7 0.00 0.00 0.00 60 1012.5
20260503193431 73 325 5.2 10.4 0.00 0.00 0.00 59 1012.6
20260503192812 72 331 6.1 10.4 0.00 0.00 0.00 60 1012.7
20260503192106 71 337 7.0 10.4 0.00 0.00 0.00 60 1012.7
20260503191352 71 332 5.2 8.7 0.00 0.00 0.00 62 1012.8
20260503190656 71 331 5.2 9.6 0.00 0.00 0.00 63 1012.9
20260503185206 70 307 4.3 8.7 0.00 0.00 0.00 64 1013.0
20260503183651 69 318 5.2 8.7 0.00 0.00 0.00 65 1013.0
20260503182231 69 281 3.5 7.8 0.00 0.00 0.00 65 1013.3
20260503180851 69 277 3.5 7.8 0.00 0.00 0.00 66 1013.3
20260503175501 67 276 4.3 7.8 0.00 0.00 0.00 68 1013.4
20260503174026 67 286 4.3 9.6 0.00 0.00 0.00 68 1013.4
20260503172728 68 317 4.3 10.4 0.00 0.00 0.00 67 1013.5
20260503171457 67 299 4.3 9.6 0.00 0.00 0.00 69 1013.6
20260503171156 67 299 4.3 9.6 0.00 0.00 0.00 69 1013.6
20260503131357 54 337 1.7 3.5 0.00 0.00 0.00 81 1013.5
20260503130111 55 9 0.9 2.6 0.00 0.00 0.00 80 1013.5
20260503110711 56 285 0.9 1.7 0.00 0.00 0.00 79 1013.8
20260503110217 57 300 0.9 1.7 0.00 0.00 0.00 78 1013.9
20260503090126 58 292 1.7 2.6 0.00 0.00 0.00 73 1013.9
20260503080652 59 264 0.9 1.7 0.00 0.00 0.00 72 1013.8
20260503080551 59 264 0.9 1.7 0.00 0.00 0.00 72 1013.8
20260503072607 60 314 0.9 1.7 0.00 0.00 0.00 70 1013.7
20260503072156 60 280 0.9 1.7 0.00 0.00 0.00 70 1013.7
20260503070736 61 251 0.9 1.7 0.00 0.00 0.00 70 1013.7
20260503053857 64 247 0.9 0.9 0.00 0.00 0.00 66 1013.5
20260503053626 64 247 0.9 0.9 0.00 0.00 0.00 66 1013.5
20260503052402 64 245 0.0 1.7 0.00 0.00 0.00 66 1013.6
20260503052206 64 245 0.0 1.7 0.00 0.00 0.00 66 1013.6
20260503050841 64 356 0.0 0.9 0.00 0.00 0.00 65 1013.5
20260503045712 64 163 0.0 1.7 0.00 0.00 0.00 64 1013.5
20260503045316 65 227 0.9 1.7 0.00 0.00 0.00 64 1013.4
20260503044001 66 227 0.9 1.7 0.00 0.00 0.00 63 1013.2
20260503042922 67 227 0.9 2.6 0.00 0.00 0.00 62 1013.1
20260503042446 67 199 0.9 2.6 0.00 0.00 0.00 61 1013.0
20260503041437 68 259 0.9 4.3 0.00 0.00 0.00 59 1012.9
20260503041041 68 259 0.9 4.3 0.00 0.00 0.00 59 1012.9
20260503040537 68 318 2.6 4.3 0.00 0.00 0.00 59 1012.7
20260503040219 68 318 2.6 4.3 0.00 0.00 0.00 59 1012.7
20260503035526 68 330 1.7 4.3 0.00 0.00 0.00 59 1012.6
20260503034126 68 308 1.7 3.5 0.00 0.00 0.00 60 1012.6
20260503033527 67 328 1.7 4.3 0.00 0.00 0.00 61 1012.6
20260503032611 67 317 2.6 6.1 0.00 0.00 0.00 62 1012.5
20260503031151 67 313 3.5 6.1 0.00 0.00 0.00 62 1012.4
20260503031102 67 313 3.5 6.1 0.00 0.00 0.00 62 1012.4
20260503025826 68 308 3.5 6.1 0.00 0.00 0.00 61 1012.3
20260503024241 68 305 3.5 7.8 0.00 0.00 0.00 61 1012.3
20260503023232 69 298 5.2 7.8 0.00 0.00 0.00 61 1012.3
20260503022711 69 302 3.5 7.0 0.00 0.00 0.00 60 1012.3
20260503021226 70 304 3.5 7.8 0.00 0.00 0.00 60 1012.3
20260503020437 70 306 4.3 9.6 0.00 0.00 0.00 61 1012.3
20260503015636 70 301 5.2 10.4 0.00 0.00 0.00 61 1012.3
20260503015232 70 306 4.3 10.4 0.00 0.00 0.00 60 1012.3
20260503014251 70 316 6.1 11.3 0.00 0.00 0.00 61 1012.4
20260503013737 70 316 5.2 11.3 0.00 0.00 0.00 60 1012.3
20260503012956 70 317 7.0 12.2 0.00 0.00 0.00 60 1012.4
20260503011636 70 322 6.1 12.2 0.00 0.00 0.00 59 1012.3
20260503011112 70 320 7.0 12.2 0.00 0.00 0.00 59 1012.3
20260503010201 70 322 6.1 11.3 0.00 0.00 0.00 58 1012.4
20260503005822 70 321 7.0 11.3 0.00 0.00 0.00 58 1012.4
20260503004545 70 331 6.1 11.3 0.00 0.00 0.00 58 1012.6
20260503003222 70 327 6.1 12.2 0.00 0.00 0.00 59 1012.6
20260503003041 70 327 6.1 12.2 0.00 0.00 0.00 59 1012.6